星链-36912(STARLINK-36912)

导读

STARLINK-36912(NORAD编号67961)是美国太空探索技术公司(SpaceX)Starlink星链互联网星座中的一颗V1.0版本低轨通信卫星,轨道倾角约70.003°,近地点约570.236km、远地点约573.934km,轨道周期约96.108分钟,每日绕地球运行近15圈。 作为Starlink全球卫星互联网项目的组成部分,它配备相控阵天线,可支持多终端同时通信,依托低轨布局为全球提供高速低延迟互联网接入,服务偏远地区网络覆盖,同时可为航空、军事等领域提供通信支撑。

基本信息
目录编号:
67961
目录名称:
STARLINK-36912
国际标识:
2026-038A
轨道中心:
EARTH
卫星名称:
星链-36912
卫星全名:
星链-36912(STARLINK-36912)
卫星状态:
在轨 (已飞行153 天)
发射日期:
2026-02-25 UTC
国别 :
美国 (US)
星等 :
--
轨道信息
数据来源 国际轨道数据
星历时间: 2026-07-27T07:57:07+0800
1天前
查看轨道信息
半长轴: 6843.64km
偏心率: 0.0002229
轨道倾角: 97.280°
近地点辐角 100.801°
升交点赤经 217.061°
平近点角 259.349°
近地点: 463.977km
远地点: 467.029km
周期: 93.905分钟
每日圈数: 15.334588
详细信息
固有亮度:
5
最大亮度:
2.5
卫星平台:
Starlink V1.0
覆盖范围:
全球
运营商:
太空探索技术公司
运营商所在国:
美国
制造商(研发单位):
太空探索技术公司
制造商所在国:
美国
使用方式:
暂无
卫星简介
Starlink 计划是 SpaceX 推出的全球卫星互联网项目,通过发射低轨道卫星,为全球尤其是偏远地区提供高速、低延迟的互联网服务。自 2019 年起,Starlink 已部署数千颗卫星,旨在缩小全球数字鸿沟,推动互联网普及。该项目还为军事、航空等行业提供通信支持,带来广泛经济效益。
2D轨道图
3D轨道图
轨道高度分析图
轨道倾角分析图
轨道综合分析图
查看轨道综合分析图